Showing default

IRIDIUM 162, 43482

Orbit data source: Space-Track

IRIDIUM 162, 43482 is a payload satellite owned by Iridium (US) in LEO that was launched on Tue, 22 May 2018 UTC via an FALCON 9 launch vehicle from the Air Force Western Test Range (AFWTR). Payload-class satellites include a variety of spacecraft equipped with specific instruments for various scientific and technological missions. These include communications satellites like Starlink; space stations such as the ISS; scientific satellites like the Hubble; Earth observation satellites from companies like Planet Labs, Umbra, and HawkEye 360; GPS; miniature CubeSats for education and research; and military/defense satellites.

Loading next visibility...
Identifier
43482, 2018-047G
Orbit
LEO
Country
Flag of USUS
Related business
Manufacturer
OATK SSG Gilbert
Mission
Operational Commercial Communications
Bus & Motor
ELITEBUS, Unknown motor
Mass
860 kg wet, 700 kg dry
Launch date (UTC)
2018-05-22 (7 years ago)
Launch vehicle
FALCON 9
Launch site
Air Force Western Test Range (AFWTR)
Object type
Payload
Rocket body
Debris
Shape & HBR
Trap Box + 2 Pan, 4.7 m
Radar Cross Section
14.423 m², Large (>1 m²)

Expand to show TLE details & history
Last TLE update: 23 hours ago

TLE from 23 hours ago
0 IRIDIUM 162
1 43482U 18047G   25259.92986661  .00000333  00000-0  93133-4 0  9993
2 43482  86.4541 202.4979 0002211  92.2239 267.9216 14.43279777385715
Epoch: 2025-09-16T22:19Z
TLE epoch observation values (Epoch: 2025-09-16T22:19:00.475Z)
Latitude
0.00009°
Longitude
-128.36718°
Altitude
750.805 km
Speed
7.479 km/s
True Right ascension
13h 29m 59s
True Declination
0° 00' 00"
Sunlit
Object was in daylight at epoch
Visualization orbit readout
Latitude
Unknown
Longitude
Unknown
Altitude
Unknown
Speed
Unknown
Apparent Right ascension
Unknown
Apparent Declination
Unknown
Sunlit
N/A
Visualization observer readout
Local Sidereal Time
14:13:08
Azimuth
Unknown
Elevation
Unknown
Doppler factor
Unknown
Orbital elements
Apogee altitude
746.208 km
Perigee altitude
743.058 km
Semi-major axis
7,122.77 km
Eccentricity
0.00022
Inclination
86.4541°
RAAN
202.4979°
Arg. of periapsis
92.2239°
True anomaly
267.89628°
Mean anomaly
267.9216°
Eccentric anomaly
267.90894°
Mean motion
3.61052 °/min
Orbital period
99.71 mins
BSTAR
0.000093133
Loading maneuver chart data...
Computing Atmospheric mass density...
Loading historical data...
Loading historical data...
Loading historical data...
Loading historical data...
Loading historical data...
Loading historical data...
Loading historical data...

Documentation

Showing up to 5 results
|